Regional Weather Roundup
Issued by NWS Cleveland, OH

Home | Current Version | Previous Version | Graphics & Text | Print | Product List | Glossary On
Versions: 1 2 3 4 5 6 7 8 9 10 11 12 13 14 15 16 17 18 19 20 21 22 23 24 25 26 27 28 29 30 31 32 33 34 35 36 37 38 39 40 41 42 43 44 45 46 47 48 49 50
000
ASUS41 KCLE 251310
RWRCLE
OHIO REGIONAL WEATHER ROUNDUP
NATIONAL WEATHER SERVICE CLEVELAND, OH
900 AM EDT THU AUG 25 2016

NOTE: "FAIR" INDICATES FEW OR NO CLOUDS BELOW 12,000 FEET WITH NO
SIGNIFICANT WEATHER AND/OR OBSTRUCTIONS TO VISIBILITY.

OHZ001>008-015>018-024>027-034-035-043-044-251400-
   NORTHWEST OHIO

CITY           SKY/WX    TMP DP  RH WIND       PRES   REMARKS
DEFIANCE       CLOUDY    71  69  93 CALM      30.01F
FINDLAY        CLOUDY    75  71  87 S5        30.01F
TOLEDO EXPRESS CLOUDY    71  71 100 SW3       30.00F
TOLEDO EXEC    CLOUDY    74  72  93 SW7       30.01F
LIMA           CLOUDY    74  73  97 SW3       30.04F
$$

OHZ009>014-019>023-028>033-038-089-251400-
   NORTHEAST OHIO

CITY           SKY/WX    TMP DP  RH WIND       PRES   REMARKS
CLE-HOPKINS    CLOUDY    76  70  82 SW8       30.06R
CLE-LAKEFRONT  CLOUDY    76  71  85 SW10      30.02R
CUY CO. ARPT   CLOUDY    77  75  94 SW12      30.04R
LORAIN-ELYRIA  PTSUNNY   74  70  87 W8        30.05R
ASHTABULA      CLOUDY    75  75 100 W8        30.03R
AKRON-CANTON   CLOUDY    74  70  87 W9        30.07R
WOOSTER        MOSUNNY   74  71  91 SW8       30.08R
MANSFIELD      CLOUDY    75  72  90 SW8       30.09R
YOUNGSTOWN     CLOUDY    73  71  93 SW7       30.07  FOG
$$

OHZ042-051>053-060>062-070>072-077>081-251400-
  SOUTHWEST OHIO

CITY           SKY/WX    TMP DP  RH WIND       PRES   REMARKS
CINC-COVINGTON MOSUNNY   79  75  87 SW8       30.09
CINC-LUNKEN    MOSUNNY   79  75  87 S8        30.08F
HAMILTON       SUNNY     81  74  79 SW6       30.08F
DAYTON         PTSUNNY   77  74  90 S8        30.08F
WRIGHT-PAT AFB PTSUNNY   78  76  93 S7        30.06F
DAYTON GENERAL CLOUDY    77  73  87 S7        30.07F
WILMINGTON     CLOUDY    76  74  93 SW7       30.10F
$$

OHZ036-037-039>041-045>050-054>059-063>069-073>076-082>088-251400-
  CENTRAL AND SOUTHEAST OHIO

CITY           SKY/WX    TMP DP  RH WIND       PRES   REMARKS
COLUMBUS       CLOUDY    75  73  93 S6        30.08R
OSU AIRPORT    MOSUNNY   77  75  93 W6        30.08S
BOLTON FIELD   PTSUNNY   75  75 100 SW5       30.08F
RICKENBACK AFB CLOUDY    74  73  98 S6        30.08S
NEWARK         PTSUNNY   76  73  91 S7        30.08S
MARION         PTSUNNY   76  73  91 SW7       30.07S FOG
LANCASTER      CLOUDY    77  74  90 SW5       30.09S
ZANESVILLE     PTSUNNY   76  73  91 S7        30.09R
NEW PHILLY     SUNNY     78  70  76 VRB7      30.09R
$$




USA.gov is the U.S. government's official web portal to all federal, state and local government web resources and services.